Tracking 17154 objects as of 1-August-2015
HD Live streaming from Space Station

COSMOS 2318 (GLONASS)

Track COSMOS 2318 (GLONASS) now!
COSMOS 2318 (GLONASS) is classified as:


NORAD ID: 23622
Int'l Code: 1995-037C
Perigee: 19,078.4 km
Apogee: 19,195.8 km
Inclination: 66.6 °
Period: 675.7 minutes
Semi major axis: 25508 km
RCS: 3.5243 m2 (large)
Launch date: July 24, 1995
Source: Commonwealth of Independent States (former USSR) (CIS)
SV:
Your satellite tracking list
Your tracking list is empty





NASA's NSSDC Master Catalog

Two Line Element Set (TLE):
1 23622U 95037C   15212.14996961 -.00000043  00000-0  00000+0 0  9992
2 23622 066.6047 332.6278 0022996 112.7706 133.1235 02.13101208155804

Source of the keplerian elements: AFSPC

N2YO: 222